Home   Weather   Germany   Fürth   Past weeks
Flag for Germany

Past Weather in Fürth, Bavaria, Germany — Yesterday and Last 2 Weeks

Currently: 36 °F. Passing clouds. (Weather station: Nuernberg, Germany). See more current weather

Past Weather in Fürth — Graph

°F

Fürth Temperature Yesterday

Maximum temperature yesterday: 46 °F (at 4:20 pm)
Minimum temperature yesterday: 19 °F (at 6:20 am)
Average temperature yesterday: 32 °F

High & Low Weather Summary for the Past Weeks

 TemperatureHumidityPressure
High68 °F (Feb 25, 4:20 pm)100% (Feb 22, 10:50 pm)30.63 "Hg (Feb 22, 10:50 pm)
Low19 °F (Mar 6, 5:50 am)27% (Mar 2, 3:50 pm)29.95 "Hg (Mar 4, 8:20 pm)
Average40 °F73%30.37 "Hg
* Reported Feb 21 6:20 pm — Mar 8 6:50 pm, Fürth. Weather by CustomWeather, © 2021

Note: Actual official high and low records may vary slightly from our data, if they occured in-between our weather recording intervals... More about our weather records

Fürth Weather History for the Previous 24 Hours

Scroll right to see more
 ConditionsComfort  
Time TempWeatherWind HumidityBarometerVisibility
6:50 pm
Mon, Mar 8
37 °FPassing clouds.3 mph70%30.15 "HgN/A
6:20 pm37 °FPassing clouds.3 mph70%30.12 "HgN/A
5:50 pm39 °FPassing clouds.6 mph65%30.12 "HgN/A
5:20 pm39 °FPassing clouds.3 mph65%30.12 "HgN/A
4:50 pm39 °FPassing clouds.3 mph65%30.12 "HgN/A
4:20 pm39 °FScattered clouds.2 mph65%30.12 "HgN/A
3:50 pm39 °FScattered clouds.5 mph65%30.12 "HgN/A
3:20 pm39 °FScattered clouds.7 mph65%30.12 "HgN/A
2:50 pm39 °FPassing clouds.6 mph65%30.12 "HgN/A
2:20 pm39 °FScattered clouds.6 mph65%30.12 "HgN/A
1:50 pm41 °FScattered clouds.5 mph57%30.15 "HgN/A
1:20 pm39 °FScattered clouds.5 mph65%30.15 "HgN/A
12:50 pm39 °FScattered clouds.5 mph65%30.15 "HgN/A
12:20 pm37 °FScattered clouds.6 mph65%30.15 "HgN/A
11:50 am37 °FScattered clouds.5 mph65%30.15 "HgN/A
11:20 am36 °FBroken clouds.5 mph70%30.15 "HgN/A
10:50 am36 °FPartly sunny.3 mph70%30.15 "HgN/A
10:20 am34 °FPartly sunny.2 mph75%30.15 "HgN/A
9:50 am32 °FPartly sunny.2 mph75%30.15 "HgN/A
9:20 am30 °FPartly sunny.2 mph80%30.15 "HgN/A
8:50 am30 °FScattered clouds.2 mph80%30.15 "HgN/A
8:20 am27 °FPartly sunny.2 mph86%30.15 "HgN/A
7:50 am23 °FPartly sunny.2 mph86%30.15 "HgN/A
7:20 am21 °FScattered clouds.3 mph93%30.12 "HgN/A
6:50 am21 °FSunny.1 mph93%30.12 "Hg10 mi
5:50 am21 °FClear.1 mph86%30.12 "Hg10 mi
5:20 am21 °FClear.2 mph93%30.12 "Hg10 mi
4:50 am21 °FClear.2 mph93%30.09 "Hg10 mi
4:20 am21 °FClear.2 mph93%30.09 "Hg10 mi
3:50 am23 °FClear.1 mph86%30.09 "Hg10 mi
3:20 am21 °FClear.2 mph93%30.09 "Hg10 mi
2:50 am23 °FClear.1 mph86%30.09 "Hg10 mi
2:20 am25 °FClear.1 mph80%30.12 "Hg10 mi
1:50 am25 °FClear.2 mph86%30.12 "Hg10 mi
1:20 am25 °FClear.1 mph80%30.12 "Hg10 mi
12:50 am27 °FClear.6 mph80%30.09 "Hg10 mi
12:20 am25 °FClear.5 mph86%30.09 "Hg10 mi
11:50 pm
Sun, Mar 7
27 °FClear.2 mph80%30.09 "Hg10 mi
11:20 pm27 °FClear.1 mph74%30.09 "Hg10 mi
10:50 pm28 °FClear.5 mph74%30.09 "Hg10 mi
10:20 pm28 °FClear.3 mph74%30.09 "Hg10 mi
9:50 pm27 °FClear.1 mph69%30.09 "Hg10 mi
9:20 pm28 °FClear.1 mph64%30.09 "Hg10 mi
8:50 pm28 °FClear.1 mph64%30.09 "Hg10 mi
8:20 pm30 °FClear.1 mph64%30.09 "Hg10 mi
Weather by CustomWeather, © 2021

See weather overview